DW9987 Weather Reports


Display with metric or nautical units.
time (UTC)temp
F
wind
direction
speed
MPH
gust
MPH
rain 1hr
in
rain 24hr
in
rain mn
in
humidity
%
barometer
mb
20260508180058 65 230 1.0 7.0 0.00 0.00 0.00 58 1008.8
20260508174551 64 229 0.0 5.0 0.00 0.00 0.00 60 1009.1
20260508173048 64 290 1.0 5.0 0.00 0.00 0.00 61 1009.2
20260508171546 63 325 0.0 7.0 0.00 0.00 0.00 64 1009.4
20260508170043 63 190 1.0 5.0 0.00 0.00 0.00 65 1009.8
20260508164539 62 166 1.0 7.0 0.00 0.00 0.00 69 1009.9
20260508163050 61 248 1.0 11.0 0.00 0.00 0.00 69 1010.2
20260508161549 61 196 2.0 7.0 0.00 0.00 0.00 70 1010.4
20260508160035 61 198 3.0 6.0 0.00 0.00 0.00 70 1010.5
20260508154534 61 209 0.0 7.0 0.00 0.00 0.00 69 1010.4
20260508153049 61 238 0.0 5.0 0.00 0.00 0.00 71 1010.6
20260508151527 59 194 1.0 5.0 0.00 0.00 0.00 72 1010.7
20260508150026 59 196 0.0 3.0 0.00 0.00 0.00 73 1010.9
20260508144525 59 197 2.0 6.0 0.00 0.00 0.00 73 1010.9
20260508143021 58 186 0.0 6.0 0.00 0.00 0.00 77 1011.1
20260508141518 57 236 0.0 7.0 0.00 0.00 0.00 81 1011.2
20260508140014 55 202 0.0 3.0 0.00 0.00 0.00 84 1011.2
20260508134515 54 183 1.0 4.0 0.00 0.00 0.00 82 1011.3
20260508133008 53 190 0.0 5.0 0.00 0.00 0.00 83 1011.4
20260508131505 52 227 0.0 3.0 0.00 0.00 0.00 85 1011.3
20260508130004 50 229 0.0 3.0 0.00 0.00 0.00 87 1011.4
20260508124501 48 230 0.0 1.0 0.00 0.00 0.00 87 1011.4
20260508123002 48 230 0.0 0.0 0.00 0.00 0.00 87 1011.4
20260508121602 48 230 0.0 1.0 0.00 0.00 0.00 88 1011.1
20260508120114 47 228 0.0 1.0 0.00 0.00 0.00 89 1011.3
20260508114604 46 229 0.0 2.0 0.00 0.00 0.00 89 1011.2
20260508113104 46 228 0.0 0.0 0.00 0.00 0.00 89 1011.2
20260508111604 46 229 0.0 0.0 0.00 0.00 0.00 89 1010.9
20260508110105 46 229 0.0 0.0 0.00 0.00 0.00 89 1011.0
20260508104559 46 229 0.0 0.0 0.00 0.00 0.00 89 1010.8
20260508103059 46 229 0.0 0.0 0.00 0.00 0.00 88 1010.9
20260508101556 46 228 0.0 0.0 0.00 0.00 0.00 88 1011.2
20260508100123 46 229 0.0 0.0 0.00 0.00 0.00 88 1011.3
20260508094552 46 228 0.0 1.0 0.00 0.00 0.00 87 1011.3
20260508093051 46 229 0.0 0.0 0.00 0.00 0.00 87 1011.3
20260508091606 46 229 0.0 0.0 0.00 0.00 0.00 85 1011.4
20260508090050 46 229 0.0 0.0 0.00 0.00 0.00 84 1011.6
20260508084545 46 229 0.0 0.0 0.00 0.00 0.00 84 1011.5
20260508083043 47 229 0.0 2.0 0.00 0.00 0.00 83 1011.7
20260508081601 47 229 0.0 0.0 0.00 0.00 0.00 82 1011.6
20260508080041 47 229 0.0 0.0 0.00 0.00 0.00 81 1011.7
20260508074541 47 229 0.0 0.0 0.00 0.00 0.00 81 1011.8
20260508073043 48 229 0.0 0.0 0.00 0.00 0.00 79 1011.9
20260508071538 49 229 0.0 0.0 0.00 0.00 0.00 77 1012.0
20260508070031 49 229 0.0 0.0 0.00 0.00 0.00 77 1012.1
20260508064532 50 229 0.0 0.0 0.00 0.00 0.00 76 1012.1
20260508063027 50 229 0.0 1.0 0.00 0.00 0.00 74 1012.1
20260508061525 51 229 0.0 3.0 0.00 0.00 0.00 74 1012.2
20260508060028 51 242 0.0 2.0 0.00 0.00 0.00 74 1012.2
20260508054602 51 246 0.0 2.0 0.00 0.00 0.00 75 1012.2
20260508053028 51 245 0.0 3.0 0.00 0.00 0.00 75 1012.1
20260508051521 51 232 0.0 4.0 0.00 0.00 0.00 75 1012.0
20260508050019 51 267 0.0 3.0 0.00 0.00 0.00 75 1012.0
20260508044518 51 277 0.0 2.0 0.00 0.00 0.00 75 1011.9
20260508043019 51 219 0.0 4.0 0.00 0.00 0.00 75 1011.9
20260508041517 52 294 0.0 1.0 0.00 0.00 0.00 73 1011.8
20260508040017 53 355 0.0 2.0 0.00 0.00 0.00 72 1011.6
20260508034519 53 360 3.0 5.0 0.00 0.00 0.00 71 1011.6
20260508033027 54 252 2.0 6.0 0.00 0.00 0.00 69 1011.3
20260508031515 54 216 2.0 7.0 0.00 0.00 0.00 68 1011.3
20260508030015 55 152 1.0 7.0 0.00 0.00 0.00 67 1011.2
20260508024514 55 203 3.0 6.0 0.00 0.00 0.00 65 1011.1
20260508023014 55 208 1.0 5.0 0.00 0.00 0.00 60 1011.0
20260508021514 54 201 1.0 4.0 0.00 0.00 0.00 58 1011.0
20260508020015 53 191 2.0 4.0 0.00 0.00 0.00 62 1010.8
20260508014513 51 190 0.0 2.0 0.00 0.00 0.00 66 1010.6
20260508013014 51 190 0.0 0.0 0.00 0.00 0.00 70 1010.4
20260508011512 53 190 0.0 4.0 0.00 0.00 0.00 66 1010.4
20260508010024 54 12 0.0 0.0 0.00 0.00 0.00 66 1010.3
20260508004519 55 12 0.0 0.0 0.00 0.00 0.00 63 1010.2
20260508003011 56 12 0.0 0.0 0.00 0.00 0.00 61 1010.2
20260508001510 57 12 0.0 0.0 0.00 0.00 0.00 57 1010.2
20260508000009 58 12 0.0 0.0 0.00 0.00 0.00 57 1010.1
20260507234509 59 12 0.0 5.0 0.00 0.00 0.00 49 1010.2
20260507233008 59 355 1.0 6.0 0.00 0.00 0.00 51 1010.2
20260507231508 58 348 4.0 10.0 0.00 0.00 0.00 50 1010.4
20260507230008 59 348 4.0 11.0 0.00 0.00 0.00 51 1010.6
20260507224512 60 355 5.0 12.0 0.00 0.00 0.00 49 1010.5
20260507223006 62 290 4.0 9.0 0.00 0.00 0.00 40 1010.3
20260507221508 63 225 4.0 9.0 0.00 0.00 0.00 40 1010.2
20260507220005 63 182 3.0 13.0 0.00 0.00 0.00 45 1010.2
20260507214501 62 63 3.0 14.0 0.00 0.00 0.00 47 1010.2
20260507213059 62 179 4.0 21.0 0.00 0.00 0.00 48 1010.4
20260507211557 61 203 4.0 16.0 0.00 0.00 0.00 51 1010.5
20260507204553 60 94 3.0 9.0 0.00 0.00 0.00 51 1010.8
20260507203057 60 202 3.0 10.0 0.00 0.00 0.00 53 1011.1
20260507201548 59 271 5.0 12.0 0.00 0.00 0.00 56 1011.3
20260507200045 58 270 4.0 15.0 0.00 0.00 0.00 56 1011.5
20260507194541 57 244 5.0 13.0 0.00 0.00 0.00 58 1012.1
20260507193040 57 225 7.0 16.0 0.00 0.00 0.00 58 1012.4
20260507191538 57 224 4.0 18.0 0.00 0.00 0.00 58 1012.7
20260507190035 56 333 4.0 20.0 0.00 0.00 0.00 59 1012.9
20260507184534 56 51 6.0 22.0 0.00 0.00 0.00 57 1013.1
20260507183043 56 154 6.0 19.0 0.00 0.00 0.00 57 1013.3